Regional Weather Roundup
Issued by NWS

Current Version | Previous Version | Text Only | Print | Product List | Glossary On
Versions: 1 2 3 4 5 6 7 8 9 10 11 12 13 14 15 16 17 18 19 20 21 22 23 24 25 26 27 28 29 30 31 32 33 34 35 36 37 38 39 40 41 42 43 44 45 46 47 48 49 50
000
ASUS44 KJAN 091110
RWRMS

MISSISSIPPI HOURLY WEATHER ROUNDUP
NATIONAL WEATHER SERVICE JACKSON MS
500 AM CST TUE FEB 09 2016

NOTE: "FAIR: INDICATES FEW OR NO CLOUDS BELOW 12,000 FEET WITH NO
SIGNIFICANT WEATHER AND/OR OBSTRUCTIONS TO VISIBILITY.

MSZ001>002-007>008-010>013-018>021-025>028-034>036-091200-
NORTHWEST MISSISSIPPI

CITY           SKY/WX    TMP DP  RH WIND       PRES   REMARKS
CLEVELAND      FAIR      33  22  64 W8        30.04R WCI  26
GREENWOOD      PTCLDY    34  18  52 VRB6      30.03R WCI  29
GREENVILLE     PTCLDY    36  17  46 W12       30.05R WCI  28
OLIVE BRANCH   CLOUDY    32  19  59 NW14G21   29.96S WCI  22
OXFORD         CLOUDY    32  18  55 NW9       29.97S WCI  24
TUNICA         MOSUNNY   32  18  55 NW15      30.00S WCI  22
$$

MSZ003>006-009-014>017-022>024-029>033-037>039-091200-
NORTHEAST MISSISSIPPI

CITY           SKY/WX    TMP DP  RH WIND       PRES   REMARKS
COLUMBUS AFB   CLOUDY    37  21  53 W13       29.94R WCI  28
CORINTH        MIX PCPN  32  19  59 NW15G23   29.91S WCI  22
GOLDN TRIANGLE MOCLDY    34  16  47 W9G18     29.95R WCI  26
STARKVILLE     FAIR      32  19  59 W7        29.98R WCI  26
TUPELO         CLOUDY    35  17  47 NW10G17   29.94R WCI  27
$$

MSZ040-058-091200-
CENTRAL MISSISSIPPI

CITY           SKY/WX    TMP DP  RH WIND       PRES   REMARKS
JACKSON INTL   CLEAR     35  18  49 W6        30.05R WCI  30
JACKSON HAWKNS CLEAR     34  18  52 W9        30.06R WCI  27
MERIDIAN KEY   PTCLDY    29  21  72 SW3       30.02R
MERIDIAN NAS   CLEAR     32  20  61 W9        30.01R WCI  24
VICKSBURG      CLEAR     36  19  50 W9        30.11R WCI  29
$$

MSZ059>079-091200-
SOUTH MISSISSIPPI

CITY           SKY/WX    TMP DP  RH WIND       PRES   REMARKS
BROOKHAVEN     FAIR      37  19  48 W7        30.09R WCI  32
HATTIESBURG    CLEAR     37  18  46 W10       30.07R WCI  30
MCCOMB         CLEAR     33  19  56 W5        30.09R WCI  29
NATCHEZ        CLEAR     37  16  41 W13       30.12R WCI  29
PINE BELT      CLEAR     32  18  55 W7        30.06R WCI  26
$$

MSZ080>082-091200-
COASTAL MISSISSIPPI

CITY           SKY/WX    TMP DP  RH WIND       PRES   REMARKS
BILOXI         CLEAR     40  25  55 W8        30.08R WCI  34
PASCAGOULA     PTCLDY    34  23  64 W5        30.08R WCI  30
GULFPORT       CLEAR     36  19  50 W6        30.09R WCI  31
$$



USA.gov is the U.S. government's official web portal to all federal, state and local government web resources and services.